Location: Namasale
(1.5000°N, 32.6167°E)
Time: 02:02:30
(UTC+00:00)

Vanguard 2 Rocket - Pass Details

Date: 19 April 2021
Orbit: 553 x 3326 km, 32.9° (Epoch: 10 May)

Event Time Altitude Azimuth Distance (km) Brightness Sun altitude
Rises 18:14:20 0° 312° (NW) 6,513 12.1 -35.2°
Reaches altitude 10° 18:19:32 10° 317° (NW) 5,085 11.3 -36.5°
Enters shadow 18:31:09 47° 11° (N) 2,116 8.6 -39.3°
